Flag for Sweden Weather past 2 weeks in Gothenburg, Sweden

Now
50 °F

Clear.


Feels Like: 50 °F
Forecast: 39 / 61 °F
Wind: 2 mph from North

Location: Gothenburg / Save


UV Index: 3 (Moderate)

Visibility: 10 mi


Pressure: 30.27 "Hg

Humidity: 58%

Dew point: 36 °F

Location of GothenburgLocation

Historic Weather in Gothenburg

°F

Gothenburg temperature yesterday

Maximum temperature yesterday: 59 °F (at 2:50 PM)
Minimum temperature yesterday: 36 °F (at 4:50 AM)
Average temperature yesterday: 49 °F

Past Weeks' High & Low Weather Summary

 TemperatureHumidityPressure
High70 °F (Apr 21, 2:50 PM)100% (Apr 11, 2:50 AM)30.42 "Hg (Apr 11, 2:50 AM)
Low34 °F (Apr 19, 6:50 AM)25% (Apr 23, 6:50 PM)29.45 "Hg (Apr 14, 4:50 AM)
Average48 °F68%30.01 "Hg
* Reported Apr 9 11:20 PM — Apr 24 11:20 PM, Gothenburg, Weather by CustomWeather, © 2014

Note: Actual official high and low records may vary slightly from our data, if they occured in-between our weather recording intervals... More about our weather records

Advertising

Historic Weather Conditions — Data for Previous 24 hours

 ConditionsComfort  
Time TempWeatherWind HumidityBarometerVisibility
11:20 PM
Apr 24
52 °FPassing clouds.3 mph54%30.27 "HgN/A
10:50 PM54 °FClear.3 mph47%30.27 "Hg10 mi
10:20 PM54 °FClear.5 mph44%30.27 "Hg10 mi
9:50 PM55 °FClear.6 mph38%30.27 "Hg10 mi
9:20 PM55 °FSunny.5 mph36%30.27 "Hg10 mi
8:50 PM55 °FSunny.8 mph36%30.27 "Hg10 mi
8:20 PM55 °FSunny.9 mph38%30.27 "Hg10 mi
7:50 PM57 °FSunny.9 mph36%30.27 "Hg10 mi
7:20 PM57 °FSunny.10 mph36%30.27 "Hg10 mi
6:50 PM57 °FSunny.9 mph39%30.27 "Hg10 mi
6:20 PM59 °FSunny.10 mph34%30.27 "Hg10 mi
5:50 PM57 °FSunny.10 mph36%30.27 "Hg10 mi
5:20 PM57 °FSunny.10 mph33%30.30 "Hg10 mi
4:50 PM57 °FSunny.10 mph36%30.30 "Hg10 mi
4:20 PM57 °FPassing clouds.9 mph33%30.30 "HgN/A
3:50 PM57 °FSunny.13 mph33%30.30 "Hg10 mi
3:20 PM57 °FSunny.14 mph33%30.30 "Hg10 mi
2:50 PM59 °FPassing clouds.12 mph31%30.33 "HgN/A
2:20 PM55 °FSunny.13 mph36%30.33 "Hg10 mi
1:50 PM57 °FPassing clouds.12 mph33%30.33 "HgN/A
1:20 PM57 °FSunny.13 mph33%30.33 "Hg10 mi
12:50 PM55 °FSunny.14 mph36%30.33 "Hg10 mi
12:26 PM55 °FSunny.14 mph38%30.36 "Hg10 mi
11:50 AM52 °FSunny.14 mph41%30.36 "Hg10 mi
11:20 AM50 °FSunny.12 mph40%30.36 "Hg10 mi
10:50 AM50 °FPassing clouds.10 mph43%30.36 "HgN/A
10:20 AM48 °FSunny.12 mph46%30.39 "Hg10 mi
9:20 AM45 °FSunny.13 mph49%30.39 "Hg10 mi
8:50 AM43 °FSunny.14 mph49%30.39 "Hg10 mi
8:20 AM43 °FSunny.15 mph49%30.39 "Hg10 mi
7:50 AM41 °FSunny.13 mph53%30.39 "Hg10 mi
7:20 AM39 °FSunny.13 mph56%30.39 "Hg10 mi
6:50 AM37 °FSunny.10 mph60%30.39 "Hg10 mi
6:20 AM36 °FClear.10 mph60%30.39 "Hg10 mi
5:50 AM36 °FClear.9 mph60%30.39 "Hg10 mi
5:20 AM36 °FClear.8 mph56%30.39 "Hg10 mi
4:50 AM36 °FClear.7 mph56%30.42 "Hg10 mi
4:20 AM37 °FClear.8 mph48%30.42 "Hg10 mi
3:50 AM37 °FClear.7 mph48%30.42 "Hg10 mi
3:20 AM39 °FClear.10 mph42%30.42 "Hg10 mi
2:50 AM41 °FClear.9 mph39%30.42 "Hg10 mi
2:20 AM41 °FClear.10 mph39%30.42 "Hg10 mi
1:50 AM43 °FClear.10 mph36%30.42 "Hg10 mi
1:20 AM43 °FClear.9 mph39%30.42 "Hg10 mi
12:50 AM45 °FClear.10 mph37%30.42 "Hg10 mi
12:20 AM45 °FClear.9 mph39%30.39 "Hg10 mi
Weather by CustomWeather, © 2014

See weather overview